Das Wetter in  D-61279 Heinzenberg / Taunus





Wetter Minimum- & Maximum-Werte im Januar 2016

Standort: Heinzenberg / Taunus - Höhe 297 m         8 24' 1" Ost 50 21' 51" Nord
(   3-stündige Aktualisierung    letzte Aktualisierung um 19:04 am 31.01.2016  )


Messgrösse

Minimum

Maximum

Durchschnitt

Temperatur West /
Luftfeuchte West
Anklicken für Monats-Diagramm

-12,6 C

08:34
18.01.2016

56 %

17:56
27.01.2016

14,7 C

15:44
25.01.2016

93 %

13:45
01.01.2016

Temp

2,1 C

Feuchte

85 %

Temperatur Ost /
Luftfeuchte Ost
Anklicken für Monats-Diagramm

-12,1 C

08:49
18.01.2016

--

--
--

14,9 C

15:44
25.01.2016

--

--
--

2,3 C

--

Luftdruck Anklicken für Monats-Diagramm

987,5 hPa

20:12
11.01.2016

1036,5 hPa

00:18
24.01.2016

1013,7 hPa

Taupunkt

-14,6 C

08:34
18.01.2016

9,7 C

13:39
25.01.2016

-0,2 C

Windchill
( gefühlte Temperatur )

-16,6 C

11:02
22.01.2016

14,7 C

15:49
25.01.2016

-1,2 C

Windgeschwindigkeit /
Windrichtung
Anklicken für Monats-Diagramm

---

56,8 km/h / W-SW

08:34
30.01.2016

9,2 km/h
W-SW

Helligkeit /
Sonnenschein
Anklicken für Monats-Diagramm
Anklicken für Monats-Diagramm

Sonnenschein:

44:56 Stunden

Max: 6:50 Std am
08.01.2016

51,5 klux

11:13
17.01.2016

8,8 klux

Solarstrahlung Anklicken für Monats-Diagramm

---

352 W/m

11:13
17.01.2016

68 W/m

Regenmenge
    Januar 2016
Anklicken für Monats-Diagramm

Insgesamt 50,8 l/m

in 99:15 Stunden
an 22 Tagen

9,0 l/m

14:51
02.01.2016

Gesamtmenge

50,8 l/m

Regen-Tage
    Januar 2016
Anklicken für Monats-Diagramm

>   0 mm/Tag

>   2 mm/Tag

>   5 mm/Tag

> 10 mm/Tag

> 20 mm/Tag

22 Tage     
9 Tage     
2 Tage     
0 Tage     
0 Tage     

Eisige Tage Januar 2016 / 2015

Tmin ≤ -10C     

3 Tage

/

0 Tage

Eistage Januar 2016 / 2015

Tmax <     0C     

  1 Tag

/

  1 Tag

Frosttage Januar 2016 / 2015

Tmin ≤     0C     

13 Tage

/

15 Tage

Kalte Tage Januar 2016 / 2015

Tmax <   10C     

26 Tage

/

28 Tage

Warme Tage Januar 2016 / 2015

Tmax ≥   20C     

0 Tage

/

0 Tage

Sommertage Januar 2016 / 2015

Tmax ≥   25C     

0 Tage

/

0 Tage

Heisse Tage Januar 2016 / 2015

Tmax ≥   30C     

0 Tage

/

0 Tage


Monatsdiagramm Januar 2016

Die Kurven zeigen den Durchschnittswert des jeweiligen Tages an


Wetter-Monatsübersicht Januar 2016
Datum
  Temperatur
   Luftdruck
   Wind
  Regen
   Luftfeuchte
   Helligkeit

Sonnen-
schein


Temp.

Min.
Temp.

Max.
Temp.


Luftdruck

Min.
Luftdruck

Max.
Luftdruck

-Geschw.
Haupt-Richtg.

Max.
Wind

Menge /
Dauer


Feuchte

Min.
Feuchte

Max.
Feuchte


Helligkeit

Max.
Helligkeit

1.
Januar
1,8 C-2,0 C
02:20
5,1 C
14:55
1025,5 hPa1020,8 hPa
21:45
1027,8 hPa
02:35
3,3 km/h
O-SO
24,5 km/h
21:25  
---
90 %85 %
23:46
93 %
13:45
3,13 klux8,11 klux
12:20
--- 
2.
Januar
1,4 C0,6 C
10:16
3,3 C
00:01
1014,9 hPa1012,8 hPa
23:02
1020,8 hPa
00:01
9,6 km/h
O-SO
29,1 km/h
06:06  
9,0 l/m
10:30 Stunden
87 %83 %
01:36
91 %
22:01
2,18 klux5,30 klux
13:21
--- 
3.
Januar
2,0 C0,7 C
23:42
3,8 C
13:42
1006,7 hPa996,3 hPa
23:17
1012,8 hPa
00:32
11,9 km/h
O-SO
35,4 km/h
22:32  
1,7 l/m
3:05 Stunden
92 %91 %
00:02
92 %
05:27
3,99 klux19,50 klux
13:37
--- 
4.
Januar
2,7 C0,1 C
05:42
5,8 C
14:52
991,9 hPa990,5 hPa
14:52
996,3 hPa
00:02
9,8 km/h
W-SW
35,2 km/h
03:32  
3,2 l/m
7:37 Stunden
91 %89 %
21:12
92 %
10:12
5,9 klux20,9 klux
13:07
5 Min 
5.
Januar
4,6 C3,6 C
05:28
6,0 C
11:53
994,7 hPa992,7 hPa
01:38
996,9 hPa
23:59
6,1 km/h
SW
21,6 km/h
12:03  
0,6 l/m
1:30 Stunden
88 %84 %
12:08
89 %
00:03
7,8 klux31,6 klux
11:53
1:00 Std 
6.
Januar
4,6 C3,8 C
23:59
6,1 C
13:04
999,4 hPa996,9 hPa
00:04
1002,0 hPa
20:19
1,0 km/h
SW
10,6 km/h
00:19  
2,9 l/m
4:40 Stunden
89 %85 %
16:44
91 %
07:04
5,1 klux14,8 klux
12:44
--- 
7.
Januar
4,0 C2,8 C
01:29
5,9 C
21:19
997,3 hPa992,7 hPa
14:24
1002,2 hPa
02:54
11,8 km/h
O-SO
43,4 km/h
21:24  
4,1 l/m
4:30 Stunden
88 %81 %
23:55
91 %
03:54
4,5 klux21,7 klux
11:24
5 Min 
8.
Januar
3,1 C-2,2 C
23:36
9,6 C
15:10
1004,6 hPa998,9 hPa
00:00
1006,4 hPa
09:15
12,4 km/h
W-SW
32,2 km/h
03:35  
---
78 %61 %
14:50
86 %
23:36
19,1 klux34,3 klux
12:35
6:50 Std 
9.
Januar
-0,6 C-4,2 C
09:06
5,2 C
23:52
1004,1 hPa999,9 hPa
23:52
1006,3 hPa
09:06
0,8 km/h
SO
18,5 km/h
16:11  
---
88 %86 %
00:01
91 %
22:42
10,8 klux37,3 klux
13:06
1:50 Std 
10.
Januar
5,7 C3,8 C
02:12
9,0 C
14:42
995,6 hPa993,6 hPa
07:07
1000,0 hPa
00:42
13,9 km/h
W-SW
39,5 km/h
12:17  
4,3 l/m
5:20 Stunden
83 %67 %
13:42
90 %
02:37
14,7 klux41,9 klux
13:17
3:25 Std 
11.
Januar
3,8 C1,4 C
06:47
5,2 C
10:37
990,7 hPa987,5 hPa
20:12
995,9 hPa
01:12
7,2 km/h
W-SW
30,9 km/h
22:53  
4,6 l/m
6:36 Stunden
88 %85 %
13:07
91 %
09:47
3,6 klux10,8 klux
12:57
--- 
12.
Januar
4,2 C3,3 C
19:48
6,5 C
15:33
996,7 hPa990,6 hPa
00:03
1002,2 hPa
20:48
20,5 km/h
W-SW
40,8 km/h
07:08  
0,6 l/m
4:40 Stunden
84 %75 %
15:33
89 %
00:03
10,4 klux41,9 klux
12:53
2:00 Std 
13.
Januar
3,4 C1,5 C
23:45
4,5 C
12:29
1010,0 hPa1002,1 hPa
00:59
1016,9 hPa
23:45
27,5 km/h
W
49,5 km/h
10:29  
2,6 l/m
9:05 Stunden
85 %77 %
02:24
91 %
07:19
7,1 klux36,9 klux
12:09
55 Min 
14.
Januar
1,2 C-1,4 C
04:45
3,4 C
13:45
1009,8 hPa1004,5 hPa
22:56
1017,2 hPa
02:15
7,3 km/h
W-SW
32,9 km/h
22:36  
0,9 l/m
3:51 Stunden
84 %74 %
15:20
88 %
06:00
6,4 klux25,8 klux
10:00
40 Min 
15.
Januar
0,7 C0,2 C
05:21
1,8 C
02:36
1008,1 hPa1003,4 hPa
03:06
1018,1 hPa
23:52
13,1 km/h
W-SW
34,9 km/h
02:51  
1,4 l/m
7:01 Stunden
88 %78 %
03:11
91 %
10:31
2,2 klux5,3 klux
11:41
--- 
16.
Januar
-0,1 C-1,1 C
21:42
2,3 C
13:57
1020,2 hPa1017,9 hPa
14:07
1022,4 hPa
23:58
8,7 km/h
W
41,6 km/h
14:47  
0,5 l/m
5:30 Stunden
89 %81 %
14:22
91 %
15:52
5,76 klux36,80 klux
13:47
10 Min 
17.
Januar
-2,1 C-5,9 C
23:59
0,3 C
13:58
1024,1 hPa1020,4 hPa
04:33
1028,0 hPa
22:08
0,0 km/h
N
0,0 km/h
00:03  
1,4 l/m
45 Minuten
86 %82 %
16:58
90 %
04:33
9,8 klux51,5 klux
11:13
1:10 Std 
18.
Januar
-7,3 C-12,6 C
08:34
1,1 C
14:54
1022,5 hPa1018,2 hPa
23:39
1027,6 hPa
01:24
0,0 km/h
N
0,0 km/h
00:04  
---
82 %67 %
14:49
88 %
11:14
17,5 klux51,1 klux
13:19
5:31 Std 
19.
Januar
-8,5 C-12,0 C
07:59
-6,0 C
15:39
1018,3 hPa1017,0 hPa
14:39
1019,6 hPa
09:44
0,0 km/h
N
0,8 km/h
10:34  
---
84 %82 %
00:04
86 %
10:34
6,3 klux12,1 klux
12:59
--- 
20.
Januar
-3,3 C-7,7 C
00:00
0,1 C
15:10
1019,6 hPa1019,0 hPa
07:50
1022,3 hPa
23:56
0,7 km/h
W
12,9 km/h
23:36  
---
85 %81 %
13:00
88 %
23:11
7,8 klux17,3 klux
11:00
--- 
21.
Januar
-2,1 C-8,2 C
23:57
1,9 C
14:51
1027,1 hPa1022,3 hPa
00:06
1031,8 hPa
23:57
0,5 km/h
O-SO
11,0 km/h
16:11  
---
86 %78 %
14:36
91 %
12:36
9,0 klux33,2 klux
12:21
35 Min 
22.
Januar
-5,9 C-10,6 C
07:07
0,3 C
15:27
1029,9 hPa1026,9 hPa
23:57
1032,1 hPa
07:07
3,0 km/h
O-SO
21,3 km/h
11:02  
2,0 l/m
1:25 Stunden
83 %72 %
14:32
88 %
08:12
18,2 klux36,8 klux
12:17
5:50 Std 
23.
Januar
2,4 C-3,1 C
00:02
4,5 C
15:27
1031,8 hPa1025,4 hPa
03:12
1036,4 hPa
23:58
6,1 km/h
W-SW
23,0 km/h
15:27  
1,4 l/m
4:05 Stunden
90 %87 %
00:02
93 %
11:27
5,1 klux10,4 klux
11:37
--- 
24.
Januar
4,2 C0,9 C
07:08
7,0 C
14:28
1032,7 hPa1030,7 hPa
14:28
1036,5 hPa
00:18
3,7 km/h
W-SW
18,9 km/h
16:48  
0,5 l/m
1:40 Stunden
87 %79 %
14:33
91 %
07:43
7,7 klux21,7 klux
11:58
--- 
25.
Januar
7,1 C2,4 C
23:05
14,7 C
15:44
1028,4 hPa1025,6 hPa
15:44
1030,8 hPa
00:04
1,7 km/h
W-SW
19,2 km/h
14:24  
0,2 l/m
35 Minuten
85 %61 %
16:09
93 %
09:19
13,7 klux49,5 klux
12:54
3:40 Std 
26.
Januar
7,2 C3,1 C
00:00
10,1 C
15:15
1025,0 hPa1022,2 hPa
18:20
1028,1 hPa
00:10
7,6 km/h
W-SW
32,9 km/h
21:20  
---
82 %78 %
01:35
90 %
10:20
9,5 klux42,8 klux
11:55
1:45 Std 
27.
Januar
9,7 C7,9 C
00:01
11,4 C
18:01
1018,7 hPa1014,6 hPa
22:42
1022,3 hPa
00:01
19,2 km/h
W-SW
44,7 km/h
20:21  
0,2 l/m
35 Minuten
68 %56 %
17:56
79 %
00:01
8,4 klux37,9 klux
10:46
55 Min 
28.
Januar
6,5 C0,3 C
23:58
10,9 C
00:02
1023,2 hPa1014,7 hPa
00:02
1028,5 hPa
23:58
13,8 km/h
W
47,5 km/h
02:47  
2,1 l/m
4:05 Stunden
77 %64 %
00:02
89 %
06:02
15,3 klux45,3 klux
12:42
2:50 Std 
29.
Januar
4,4 C-1,1 C
02:43
10,0 C
14:18
1027,0 hPa1024,4 hPa
23:44
1029,0 hPa
11:23
16,4 km/h
W-SW
47,3 km/h
17:28  
---
77 %61 %
14:18
89 %
04:03
20,8 klux42,7 klux
14:03
5:40 Std 
30.
Januar
5,7 C1,2 C
23:50
7,3 C
00:04
1014,5 hPa1008,1 hPa
15:24
1024,5 hPa
00:09
30,8 km/h
W-SW
56,8 km/h
08:34  
5,9 l/m
6:15 Stunden
82 %75 %
00:04
89 %
17:39
3,7 klux13,9 klux
11:24
--- 
31.
Januar
4,3 C1,2 C
00:00
9,4 C
23:51
1011,7 hPa1008,7 hPa
22:26
1013,9 hPa
00:40
16,7 km/h
W-SW
38,2 km/h
22:26  
1,1 l/m
5:55 Stunden
84 %77 %
12:55
91 %
20:50
6,6 klux26,0 klux
12:25
--- 



Januar
2016

Temperatur

  

Luftdruck

  

Wind

  

Regen

  

Luftfeuchte

  

Helligkeit

Sonnen-
schein

Min

Max

Min

Max

Max

Max

Min

Max

Max

Max

2,1 C

-12,6 C

08:34 Uhr
18.01.2016

14,7 C

15:44 Uhr
25.01.2016

1013,7 hPa

987,5 hPa

20:12 Uhr
11.01.2016

1036,5 hPa

00:18 Uhr
24.01.2016

9,2 km/h

W-SW

56,8 km/h

08:34 Uhr
30.01.2016

9,0 l/m

10:30 Stunden
02.01.2016

85 %

56 %

17:56 Uhr
27.01.2016

93 %

13:45 Uhr
01.01.2016

8,8 klux

51,50 klux

11:13 Uhr
17.01.2016

6:50 Std

am
08.01.2016

Gesamt

Gesamt

50,8 l/m

22 Tage
99:15 h

44:56 Std


Wetter-Diagramme Januar 2016     Heinzenberg / Taunus   
TemperaturLuftfeuchte
SolarstrahlungLuftdruck
HelligkeitSonnenschein
RegenmengeRegendauer
Wind-GeschwindigkeitWind-Richtung